Home > Time Zones > World Clock > Weather > U.S.A. > Bend > Past weeks

Flag for U.S.A. Weather past 2 weeks in Bend, Oregon, U.S.A.

Now
62 °F

Scattered clouds.


Feels Like: 62 °F
Forecast: 41 / 58 °F
Wind: 12 mph from Northwest

Location: Roberts Field Airport

Current Time: Sep 30, 2014 at 3:01:01 PM

Latest Report: Sep 30, 2014 at 1:56 PM


Visibility: 10 mi

Pressure: 30.06 "Hg

Humidity: 35%

Dew point: 34 °F

Location of BendLocation

Historic Weather in Bend — Graph

°F

Bend temperature yesterday

Maximum temperature yesterday: 72 °F (at 1:56 PM)
Minimum temperature yesterday: 39 °F (at 6:56 AM)
Average temperature yesterday: 56 °F

Past Weeks' High & Low Weather Summary

 TemperatureHumidityPressure
High89 °F (Sep 16, 3:56 PM)97% (Sep 26, 5:56 AM)30.10 "Hg (Sep 26, 5:56 AM)
Low38 °F (Sep 26, 5:56 AM)9% (Sep 16, 2:56 PM)29.62 "Hg (Sep 17, 5:56 PM)
Average62 °F54%29.92 "Hg
* Reported Sep 15 1:56 PM — Sep 30 1:56 PM, Bend, Weather by CustomWeather, © 2014

Note: Actual official high and low records may vary slightly from our data, if they occured in-between our weather recording intervals... More about our weather records

Advertising

Bend weather history for previous 24 hours

 ConditionsComfort  
Time TempWeatherWind HumidityBarometerVisibility
1:56 PM
Sep 30
62 °FScattered clouds.12 mph35%30.06 "Hg10 mi
12:56 PM61 °FPassing clouds.18 mph38%30.07 "Hg10 mi
11:56 AM61 °FScattered clouds.18 mph39%30.06 "Hg10 mi
10:56 AM58 °FSunny.14 mph44%30.07 "Hg10 mi
9:56 AM55 °FPassing clouds.14 mph53%30.07 "Hg10 mi
8:56 AM50 °FScattered clouds.16 mph61%30.08 "Hg10 mi
7:56 AM48 °FClear.7 mph63%30.07 "Hg10 mi
6:56 AM43 °FPassing clouds.6 mph76%30.07 "Hg10 mi
5:56 AM46 °FClear.7 mph68%30.04 "Hg10 mi
4:56 AM47 °FClear.9 mph69%30.03 "Hg10 mi
3:56 AM46 °FPassing clouds.5 mph71%30.02 "Hg10 mi
2:56 AM48 °FPassing clouds.10 mph68%30.01 "Hg10 mi
1:56 AM49 °FClear.10 mph64%30.00 "Hg10 mi
12:56 AM51 °FOvercast.15 mph56%29.99 "Hg10 mi
11:56 PM
Sep 29
52 °FOvercast.13 mph59%29.97 "Hg10 mi
10:56 PM54 °FOvercast.13 mph62%29.96 "Hg10 mi
9:56 PM55 °FOvercast.9 mph64%29.96 "Hg10 mi
8:56 PM56 °FPassing clouds.8 mph67%29.95 "Hg10 mi
7:56 PM57 °FOvercast.10 mph62%29.96 "Hg10 mi
6:56 PM59 °FOvercast.17 mph58%29.94 "Hg10 mi
5:56 PM60 °FOvercast.12 mph52%29.93 "Hg10 mi
4:56 PM63 °FPartly sunny.17 mph41%29.91 "Hg10 mi
3:56 PM69 °FSunny.21 mph31%29.88 "Hg10 mi
Weather by CustomWeather, © 2014

See weather overviewHow to use our weather pages